{"data":{"norad_id":62896,"intl_designator":"2025-024T","name":"STARLINK-32890","alt_names":[],"object_type":"PAYLOAD","status":"ACTIVE","operator":null,"country":"US","launch_date":"2025-02-04","launch_site_code":"AFETR","launch_vehicle":null,"mission":null,"orbit_class":"UNKNOWN","rcs_meters":null,"size_class":null,"mass_kg":null,"dimensions":null,"purposes":["comms"],"wikipedia_slug":null,"has_3d_model":false,"image_url":null,"decayed_at":null,"tle_current":{"epoch":"2026-09-21T03:25:02.583264Z","epoch_age_seconds":112714,"freshness":"FRESH","line1":"1 62896U 25024T   26264.14239101  .00011878  00000+0  44032-3 0  9995","line2":"2 62896  43.0018 301.0542 0002762 290.2266  69.8288 15.27590671 92160","mean_motion":15.27590671,"eccentricity":0.0002762,"inclination_deg":43.0018,"raan_deg":301.0542,"arg_perigee_deg":290.2266,"mean_anomaly_deg":69.8288,"bstar":0.00044032,"rev_number":9216,"period_min":94.26609021233,"perigee_km":481.12209263838,"apogee_km":484.9121941872,"semimajor_km":6861.1541434128,"source":"CELESTRAK","updated_at":"2026-09-22T09:00:49.705421Z"}}}